#datint,netname,site,siteid,timestamp,airt,airt_max,airt_min,airt_avg,precip_tb,soilm2,soilm4,soilm8,soilm20,soilm40,soil1t2,soil1t4,soil1t8,soil1t20,soil1t40,windd_avg,winds_max,winds_avg,rh,solarw_avg,solarmj,Td_avg,ea_avg,rh_min,rh_max,esat_avg,eto,etr
hour,USCAN,bluecreek,2135,06MAR2019:00:00:00,2.7,2.7,1.6,1.7,0,33.3,33.6,37,21.8,17.2,0.2,0.6,0.9,1.8,3.6,167,3.173984,1.609344,92,0.19,0.000684,0.8,0.65,92,94,0.69,.,.
hour,USCAN,bluecreek,2135,06MAR2019:01:00:00,2,2.7,1.8,2.1,0,33.3,33.3,37,22,17.2,0.2,0.6,0.9,1.8,3.6,24,4.02336,2.056384,93,0.2,0.00072,1.1,0.66,92,94,0.71,.,.
hour,USCAN,bluecreek,2135,06MAR2019:02:00:00,2.2,2.2,1.8,1.9,0,33.3,34,37,21.9,17.2,0.2,0.6,0.9,1.8,3.6,51,2.45872,1.162304,92,0.2,0.00072,0.8,0.65,90,93,0.7,.,.
hour,USCAN,bluecreek,2135,06MAR2019:03:00:00,2.2,3,2.2,2.4,0,33.3,33.8,37,21.9,17.2,0.2,0.6,0.9,1.8,3.6,297,3.173984,0.849376,89,0.18,0.000648,0.9,0.65,85,92,0.73,.,.
hour,USCAN,bluecreek,2135,06MAR2019:04:00:00,3.4,3.5,2.2,2.9,0,33.3,33.8,37,22.2,17.2,0.2,0.6,0.9,1.8,3.6,16,3.263392,1.609344,79,0.19,0.000684,0.5,0.63,79,89,0.75,.,.
hour,USCAN,bluecreek,2135,06MAR2019:05:00:00,2.7,3.4,2,2.5,0,33.3,33.8,37,22.1,17.3,0.2,0.6,0.9,1.8,3.6,83,2.861056,2.101088,83,0.16,0.000576,0.1,0.62,79,86,0.73,.,.
hour,USCAN,bluecreek,2135,06MAR2019:06:00:00,3.3,3.9,2.7,3.4,0,33.3,33.3,36.7,22.4,17.2,0.1,0.6,0.9,1.8,3.6,71,1.519936,0.625856,78,0.34,0.001224,0.1,0.62,77,83,0.78,.,.
hour,USCAN,bluecreek,2135,06MAR2019:07:00:00,2.6,4.1,2,3,0,33.5,33.8,37,22.3,17.3,0.2,0.6,0.9,1.8,3.6,32,2.726944,1.385824,85,26.17,0.094212,0.1,0.61,78,86,0.76,.,.
hour,USCAN,bluecreek,2135,06MAR2019:08:00:00,2.9,3.5,2.6,3,0,33.4,33.3,37,22.2,17.3,0.2,0.6,0.9,1.8,3.6,59,2.548128,1.519936,82,86.5,0.3114,0.2,0.62,80,85,0.76,.,.
hour,USCAN,bluecreek,2135,06MAR2019:09:00:00,3.8,4.3,2.9,3.5,0,33.5,33.8,37.2,22.5,16.9,0.1,0.6,0.9,1.8,3.5,58,2.279904,1.251712,78,156.5,0.5634,0.1,0.62,75,82,0.78,.,.
hour,USCAN,bluecreek,2135,06MAR2019:10:00:00,2.6,4.6,2.6,3.8,0,33.4,33.7,36.7,22.5,17,0.1,0.6,0.9,1.8,3.6,69,3.397504,1.922272,83,265.3,0.95508,0.3,0.62,74,83,0.8,.,.
hour,USCAN,bluecreek,2135,06MAR2019:11:00:00,5.8,5.8,2.6,4.4,0,33.6,34,36.7,22.8,17.4,0.1,0.6,0.9,1.8,3.6,120,3.308096,1.56464,69,285.5,1.0278,0.3,0.63,68,83,0.84,.,.
hour,USCAN,bluecreek,2135,06MAR2019:12:00:00,4.4,5.8,4.2,4.7,0,33.5,34,37,22.8,17.3,0.2,0.6,0.9,1.8,3.6,151,3.710432,2.503424,78,167.8,0.60408,0.6,0.64,69,78,0.86,.,.
hour,USCAN,bluecreek,2135,06MAR2019:13:00:00,4,4.4,3.4,3.9,0.254,33.7,33.6,36.7,22.6,16.9,0.1,0.6,0.9,1.8,3.5,165,3.79984,2.145792,82,151.7,0.54612,1,0.66,78,83,0.81,.,.
hour,USCAN,bluecreek,2135,06MAR2019:14:00:00,3.1,4,3.1,3.9,0.508,33.7,34,37,22.9,17.1,0.2,0.6,0.9,1.8,3.5,158,4.69392,2.995168,87,135.3,0.48708,1.4,0.68,82,87,0.81,.,.
hour,USCAN,bluecreek,2135,06MAR2019:15:00:00,3,3.2,2.6,2.9,1.778,33.5,33.9,36.7,23.2,16.9,0.1,0.6,0.9,1.8,3.6,154,6.392672,2.45872,94,90.2,0.32472,1.7,0.69,87,94,0.76,.,.
hour,USCAN,bluecreek,2135,06MAR2019:16:00:00,3.2,3.3,3,3.1,0.508,34.1,34.3,36.7,23.2,17.1,0.1,0.6,0.9,1.8,3.5,154,5.990336,4.02336,92,66.73,0.240228,2,0.71,91,94,0.76,.,.
hour,USCAN,bluecreek,2135,06MAR2019:17:00:00,2.6,3.2,2.5,2.9,1.778,34.4,34.7,37,23.1,17.1,0.1,0.5,0.9,1.8,3.5,159,4.202176,2.279904,96,23.42,0.084312,1.8,0.7,91,96,0.75,.,.
hour,USCAN,bluecreek,2135,06MAR2019:18:00:00,2.5,3.1,2.3,2.7,0.762,35.2,35.8,36.9,23.8,17,0.1,0.5,0.9,1.8,3.5,167,3.531616,2.2352,96,2.43,0.008748,2,0.71,94,96,0.74,.,.
hour,USCAN,bluecreek,2135,06MAR2019:19:00:00,2.4,2.5,2.2,2.3,0,35.9,36,37.3,24.1,17.6,0.1,0.6,0.9,1.8,3.5,165,4.649216,2.548128,97,0.21,0.000756,1.8,0.7,96,97,0.72,.,.
hour,USCAN,bluecreek,2135,06MAR2019:20:00:00,2.8,2.9,2.4,2.7,0,36.2,36.7,37.7,23.9,17.3,0.1,0.5,0.9,1.8,3.5,160,4.872736,3.218688,95,0.19,0.000684,2.2,0.71,95,97,0.74,.,.
hour,USCAN,bluecreek,2135,06MAR2019:21:00:00,2,3.2,2,2.7,0,36.2,36.1,38,24,17.2,0.1,0.5,0.9,1.8,3.5,166,4.112768,2.190496,95,0.2,0.00072,1.8,0.7,90,96,0.74,.,.
hour,USCAN,bluecreek,2135,06MAR2019:22:00:00,2.2,2.7,2,2.3,0,36.2,36.3,37.9,24.2,17,0.1,0.5,0.9,1.8,3.5,166,4.24688,2.145792,95,0.19,0.000684,1.8,0.69,95,97,0.72,.,.
hour,USCAN,bluecreek,2135,06MAR2019:23:00:00,2.6,2.6,1.9,2.2,0.762,36.2,36.3,38.3,24.1,16.7,0.1,0.5,0.9,1.8,3.6,170,3.039872,1.251712,97,0.19,0.000684,1.7,0.69,95,97,0.72,.,.
hour,USCAN,bluecreek,2135,07MAR2019:00:00:00,1.2,2.6,1.2,2.2,3.048,36.2,36.3,38.6,24.4,16.9,0.1,0.5,0.9,1.8,3.5,254,8.002016,3.12928,95,0.19,0.000684,1.7,0.69,95,97,0.72,.,.
hour,USCAN,bluecreek,2135,07MAR2019:01:00:00,1.7,1.7,0.5,0.9,1.524,36.2,36.1,38.6,24.2,16.9,0.1,0.5,0.9,1.8,3.5,123,4.380992,2.548128,94,0.16,0.000576,0.4,0.63,94,97,0.65,.,.
hour,USCAN,bluecreek,2135,07MAR2019:02:00:00,0.6,2,0.6,1.5,0.762,36.5,36.6,38.7,24.7,17.6,0.1,0.5,0.9,1.8,3.5,173,4.336288,1.832864,96,0.14,0.000504,0.6,0.64,91,96,0.68,.,.
hour,USCAN,bluecreek,2135,07MAR2019:03:00:00,0.8,0.9,0.6,0.7,0.254,36.5,37,39.1,24.4,17.3,0,0.5,0.9,1.8,3.5,184,2.324608,1.251712,97,0.15,0.00054,0.2,0.62,96,97,0.64,.,.
hour,USCAN,bluecreek,2135,07MAR2019:04:00:00,1.6,1.6,0.8,1.2,1.524,36.5,36.7,39.2,25.7,17.3,0,0.4,0.9,1.8,3.5,163,5.632704,3.173984,95,0.16,0.000576,0.8,0.65,95,98,0.67,.,.
hour,USCAN,bluecreek,2135,07MAR2019:05:00:00,0.7,1.6,0.7,1.3,0.762,36.5,36.7,39.1,26.7,17.1,0,0.4,0.9,1.8,3.6,169,5.230368,2.68224,97,0.15,0.00054,0.6,0.64,95,97,0.67,.,.
hour,USCAN,bluecreek,2135,07MAR2019:06:00:00,0.8,0.8,0.6,0.7,0.254,36.5,36.7,39.1,28.3,17,0,0.4,0.8,1.8,3.5,163,4.649216,2.145792,97,0.49,0.001764,0.2,0.62,97,97,0.64,.,.
hour,USCAN,bluecreek,2135,07MAR2019:07:00:00,0.8,0.8,0.4,0.5,0.254,36.2,36.6,39.1,29.8,17.1,0,0.5,0.8,1.8,3.6,168,4.02336,2.45872,97,23,0.0828,0.1,0.62,97,97,0.63,.,.
hour,USCAN,bluecreek,2135,07MAR2019:08:00:00,1.6,1.6,0.8,1,1.778,36.2,36.7,39.1,30.9,17.1,0,0.4,0.8,1.8,3.5,168,3.933952,2.369312,96,149.5,0.5382,0.5,0.64,96,97,0.66,.,.
hour,USCAN,bluecreek,2135,07MAR2019:09:00:00,1.4,1.6,0.8,1.2,0,36.2,36.3,39.4,31.5,17.1,0,0.4,0.8,1.8,3.5,176,4.202176,2.145792,96,261.5,0.9414,0.6,0.64,96,96,0.66,.,.
hour,USCAN,bluecreek,2135,07MAR2019:10:00:00,2.1,2.1,1.4,1.9,0,36.2,36.3,39.2,31.5,17.1,0,0.4,0.8,1.8,3.5,174,2.995168,1.832864,96,345.5,1.2438,1.3,0.67,95,96,0.7,.,.
hour,USCAN,bluecreek,2135,07MAR2019:11:00:00,2.5,2.5,2.1,2.2,0,36.2,36.3,39.4,31.9,17.1,0,0.4,0.8,1.8,3.5,170,3.084576,1.922272,95,384.2,1.38312,1.5,0.68,95,96,0.72,.,.
hour,USCAN,bluecreek,2135,07MAR2019:12:00:00,3.9,3.9,2.5,3.1,0.254,36.2,36.1,39.1,32,17.2,0,0.5,0.8,1.8,3.5,160,3.978656,2.056384,86,392.1,1.41156,2,0.71,86,96,0.76,.,.
hour,USCAN,bluecreek,2135,07MAR2019:13:00:00,2.5,4.4,2.5,3.6,0,36.5,36.4,39.1,31.9,17.1,0,0.5,0.8,1.8,3.6,341,4.291584,2.2352,90,514.4,1.85184,1.4,0.67,81,90,0.79,.,.
hour,USCAN,bluecreek,2135,07MAR2019:14:00:00,3.4,3.6,2.5,2.9,0.508,36.4,36.6,39.4,32.3,17.1,0,0.5,0.8,1.8,3.5,41,5.275072,3.710432,81,502.9,1.81044,0.4,0.63,79,90,0.75,.,.
hour,USCAN,bluecreek,2135,07MAR2019:15:00:00,2.8,6,2.8,4.3,0.254,36.9,37.3,39,32.4,17.1,0,0.4,0.8,1.8,3.5,76,4.69392,2.45872,82,281.2,1.01232,0.1,0.62,66,82,0.83,.,.
hour,USCAN,bluecreek,2135,07MAR2019:16:00:00,4.8,4.8,2.6,3.1,0,36.9,37.2,39.5,32.7,17.1,0,0.4,0.8,1.8,3.5,25,4.828032,1.56464,72,210.9,0.75924,0.1,0.62,72,82,0.76,.,.
hour,USCAN,bluecreek,2135,07MAR2019:17:00:00,2.9,4.8,2.9,3.5,0,36.9,36.6,39.4,32.6,17.2,0,0.4,0.8,1.8,3.5,49,2.771648,0.804672,81,110.1,0.39636,0,0.61,72,81,0.78,.,.
hour,USCAN,bluecreek,2135,07MAR2019:18:00:00,2.4,3.2,2.4,2.9,0,36.9,37.1,39.7,32.8,16.9,0,0.4,0.8,1.8,3.5,329,2.950464,1.1176,82,5.96,0.021456,-0.2,0.6,78,82,0.75,.,.
hour,USCAN,bluecreek,2135,07MAR2019:19:00:00,1.8,2.7,1.8,2.3,0,36.8,36.7,39.5,33,17.1,0,0.4,0.8,1.8,3.5,98,2.771648,0.804672,84,0.16,0.000576,-0.4,0.59,80,84,0.72,.,.
hour,USCAN,bluecreek,2135,07MAR2019:20:00:00,2.1,2.1,1.7,1.9,0,36.4,36.4,39.5,33.6,17.1,0,0.4,0.8,1.8,3.6,109,2.548128,0.849376,80,0.15,0.00054,-0.8,0.58,80,84,0.7,.,.
hour,USCAN,bluecreek,2135,07MAR2019:21:00:00,2.2,2.2,0.4,1.2,0,36.7,36.3,39.5,33.6,16.9,0,0.4,0.8,1.8,3.5,79,4.24688,2.056384,80,0.13,0.000468,-1.7,0.54,79,83,0.67,.,.
hour,USCAN,bluecreek,2135,07MAR2019:22:00:00,0.6,2.2,0.2,1.2,0,36.5,36.3,39.1,33.6,17.1,0,0.5,0.8,1.8,3.5,60,5.006848,2.2352,83,0.13,0.000468,-1.6,0.54,80,84,0.66,.,.
hour,USCAN,bluecreek,2135,07MAR2019:23:00:00,0.8,1.4,0.5,0.9,0,36.5,36.1,39.1,33.4,17.1,0,0.4,0.8,1.8,3.5,46,3.084576,1.698752,84,0.12,0.000432,-1.7,0.54,81,84,0.65,.,.
hour,USCAN,bluecreek,2135,08MAR2019:00:00:00,0.9,2.4,0.8,1.6,0,36.2,36.1,39.4,33.6,17.1,0,0.4,0.8,1.8,3.5,21,5.14096,2.056384,85,0.12,0.000432,-1.6,0.54,74,85,0.69,.,.
hour,USCAN,bluecreek,2135,08MAR2019:01:00:00,1.5,1.5,0.9,1.3,0,36.2,35.9,39.4,33.8,17.1,0,0.4,0.8,1.8,3.5,15,4.649216,2.145792,80,0.12,0.000432,-1.3,0.55,80,85,0.67,.,.
hour,USCAN,bluecreek,2135,08MAR2019:02:00:00,1.3,1.5,1.1,1.3,0,36,35.7,39.1,33.4,17.2,0,0.4,0.8,1.8,3.6,279,2.101088,0.67056,81,0.13,0.000468,-1.7,0.54,80,82,0.67,.,.
hour,USCAN,bluecreek,2135,08MAR2019:03:00:00,2.3,2.3,0.5,1.3,0,36.2,35.8,39.1,33.8,17.1,0,0.4,0.8,1.8,3.5,11,2.190496,0.89408,77,0.11,0.000396,-1.4,0.55,77,86,0.67,.,.
hour,USCAN,bluecreek,2135,08MAR2019:04:00:00,2.5,2.6,2.2,2.3,0,35.8,35.8,39.2,33.8,16.7,0,0.4,0.8,1.8,3.5,108,7.37616,4.828032,75,0.12,0.000432,-1.2,0.56,75,79,0.72,.,.
hour,USCAN,bluecreek,2135,08MAR2019:05:00:00,1.8,2.5,1.8,2.2,0,35.9,35.6,39.2,33.1,17.2,0,0.4,0.8,1.8,3.5,109,13.321792,7.867904,81,0.16,0.000576,-1.5,0.55,75,81,0.72,.,.
hour,USCAN,bluecreek,2135,08MAR2019:06:00:00,0.8,1.8,0.8,1.4,0,35.7,35.8,38.9,33.8,17.2,0,0.4,0.8,1.8,3.5,114,12.338304,7.465568,92,0.41,0.001476,-0.8,0.58,81,92,0.67,.,.
hour,USCAN,bluecreek,2135,08MAR2019:07:00:00,1.2,1.2,0.8,0.9,0.254,35.9,35.8,39.1,33.4,16.7,0,0.4,0.8,1.7,3.5,69,8.180832,4.91744,86,21.27,0.076572,-0.4,0.6,86,92,0.65,.,.
hour,USCAN,bluecreek,2135,08MAR2019:08:00:00,1,1.2,0.9,1.1,0.254,35.6,35.1,39.1,33.4,17,0,0.4,0.8,1.7,3.5,23,4.291584,2.279904,92,119.2,0.42912,-0.5,0.59,86,92,0.66,.,.
hour,USCAN,bluecreek,2135,08MAR2019:09:00:00,1.3,2.4,0.8,1.5,0.508,35.6,35.4,38.7,33.4,17,0,0.4,0.8,1.7,3.5,75,3.442208,1.207008,92,212.6,0.76536,0.4,0.63,91,94,0.68,.,.
hour,USCAN,bluecreek,2135,08MAR2019:10:00:00,1.4,2,1.3,1.6,0,35.5,35.5,39.2,33.6,16.7,0,0.4,0.8,1.8,3.5,169,3.933952,1.698752,88,350.4,1.26144,0.1,0.62,88,92,0.69,.,.
hour,USCAN,bluecreek,2135,08MAR2019:11:00:00,2.2,3,1.4,2.2,0,35.5,35.2,38.7,33.6,16.7,0,0.4,0.8,1.7,3.5,286,2.548128,0.581152,85,347.4,1.25064,0.4,0.63,85,90,0.72,.,.
hour,USCAN,bluecreek,2135,08MAR2019:12:00:00,-0.1,2.2,-0.1,1.5,0,35.1,34.7,38.8,33.6,16.7,0,0.5,0.8,1.8,3.5,324,6.660896,1.966976,91,266.2,0.95832,-0.1,0.61,85,91,0.68,.,.
hour,USCAN,bluecreek,2135,08MAR2019:13:00:00,-1.3,-0.1,-1.3,-0.7,0,35.2,35.2,38.8,33.6,17.2,0,0.4,0.8,1.8,3.5,331,10.460736,7.331456,87,339.3,1.22148,-2.3,0.52,87,91,0.58,.,.
hour,USCAN,bluecreek,2135,08MAR2019:14:00:00,-1.7,-1.3,-1.8,-1.6,0,35.2,35.2,39,33.6,16.7,0,0.4,0.8,1.7,3.5,331,11.533632,8.71728,84,237.8,0.85608,-3.6,0.47,84,87,0.54,.,.
hour,USCAN,bluecreek,2135,08MAR2019:15:00:00,-2,-1.7,-2.2,-2,0,35.2,35.5,38.7,33.6,17.2,0,0.4,0.8,1.8,3.5,349,9.700768,7.733792,94,187.5,0.675,-3.4,0.48,84,94,0.53,.,.
hour,USCAN,bluecreek,2135,08MAR2019:16:00:00,-1.8,-1.8,-2.1,-2,0,35,35.1,38.8,33.6,16.7,0,0.5,0.8,1.7,3.5,351,9.745472,7.510272,83,202.3,0.72828,-3.5,0.47,83,94,0.53,.,.
hour,USCAN,bluecreek,2135,08MAR2019:17:00:00,-1.9,-1.8,-2.1,-1.9,0,35.2,35.5,38.7,33.6,17.2,0,0.4,0.8,1.7,3.5,342,9.298432,6.884416,75,65.06,0.234216,-5.2,0.42,73,83,0.53,.,.
hour,USCAN,bluecreek,2135,08MAR2019:18:00:00,-1.6,-1.6,-2.1,-2,0,35,34.9,38.8,33.6,17.2,0,0.4,0.8,1.7,3.5,357,7.15264,4.828032,67,7.18,0.025848,-5.9,0.39,67,75,0.53,.,.
hour,USCAN,bluecreek,2135,08MAR2019:19:00:00,-2.2,-1.6,-2.3,-2.1,0,35.1,35.1,38.8,33.6,16.7,0,0.5,0.8,1.7,3.5,1,9.119616,6.437376,65,0.1,0.00036,-7.3,0.36,65,68,0.52,.,.
hour,USCAN,bluecreek,2135,08MAR2019:20:00:00,-2.9,-2.1,-2.9,-2.3,0,35.3,35.1,38.8,33.6,16.7,0,0.5,0.8,1.8,3.5,356,7.554976,4.4704,63,0.12,0.000432,-8.5,0.32,60,65,0.52,.,.
hour,USCAN,bluecreek,2135,08MAR2019:21:00:00,-3,-2.6,-3.8,-3,0,35.1,35.1,38.8,33.7,16.7,0,0.4,0.8,1.7,3.5,21,6.437376,3.933952,58,0.08,0.000288,-9.4,0.3,58,67,0.49,.,.
hour,USCAN,bluecreek,2135,08MAR2019:22:00:00,-3.6,-2.9,-3.6,-3.2,0,35.3,35.1,38.8,33.7,16.9,0,0.5,0.8,1.7,3.5,4,7.286752,3.263392,61,0.09,0.000324,-9.8,0.29,58,62,0.48,.,.
hour,USCAN,cachejct,2136,06MAR2019:00:00:00,-0.4,-0.4,-0.5,-0.4,0,37.5,29.9,40.9,37.8,40.1,0.9,1.3,1.2,2.4,3.9,243,1.654048,0.402336,97,0.39,0.001404,-0.7,0.58,97,99,0.59,.,.
hour,USCAN,cachejct,2136,06MAR2019:01:00:00,-0.1,-0.1,-0.4,-0.4,0,37.5,30,40.9,37.8,40.2,0.8,1.3,1.2,2.4,3.9,324,2.637536,0.938784,100,0.37,0.001332,-0.5,0.59,97,100,0.59,.,.
hour,USCAN,cachejct,2136,06MAR2019:02:00:00,-0.3,-0.1,-0.3,-0.3,0,37.7,30,40.9,37.8,40.1,0.8,1.3,1.2,2.4,3.9,17,1.78816,0.402336,100,0.4,0.00144,-0.3,0.6,100,100,0.6,.,.
hour,USCAN,cachejct,2136,06MAR2019:03:00:00,0,0,-0.3,-0.2,0,37.7,29.7,40.9,37.5,40.2,0.8,1.3,1.2,2.3,3.9,254,1.78816,0.625856,100,0.35,0.00126,-0.2,0.6,100,100,0.6,.,.
hour,USCAN,cachejct,2136,06MAR2019:04:00:00,-0.7,0,-0.7,-0.4,0,37.7,29.7,40.9,37.8,40.2,0.7,1.3,1.2,2.4,3.9,130,1.922272,0.67056,100,0.42,0.001512,-0.4,0.59,100,100,0.59,.,.
hour,USCAN,cachejct,2136,06MAR2019:05:00:00,-0.7,-0.7,-0.7,-0.7,1.016,37.7,29.7,40.9,37.8,40.1,0.7,1.3,1.2,2.4,3.9,183,3.039872,0.983488,100,0.41,0.001476,-0.7,0.58,100,100,0.58,.,.
hour,USCAN,cachejct,2136,06MAR2019:06:00:00,-0.7,-0.7,-0.8,-0.7,0.508,37.7,29.7,41.3,37.5,40.1,0.7,1.3,1.2,2.2,3.9,73,1.832864,0.536448,100,0.33,0.001188,-0.7,0.58,100,100,0.58,.,.
hour,USCAN,cachejct,2136,06MAR2019:07:00:00,-0.9,-0.7,-0.9,-0.8,0.254,37.7,29.7,40.9,37.8,40.1,0.7,1.3,1.2,2.4,3.9,320,1.877568,0.89408,100,0.51,0.001836,-0.8,0.58,100,100,0.58,.,.
hour,USCAN,cachejct,2136,06MAR2019:08:00:00,-1,-0.9,-1.1,-0.9,0,37.6,30,40.9,37.2,40.2,0.7,1.2,1.2,2.3,3.9,142,1.34112,0.44704,100,22.78,0.082008,-0.9,0.57,100,100,0.57,.,.
hour,USCAN,cachejct,2136,06MAR2019:09:00:00,-0.3,-0.3,-1,-0.8,0.254,37.5,30,41,37.5,40.1,0.7,1.2,1.2,2.3,3.9,141,1.78816,0.938784,100,68.27,0.245772,-0.8,0.58,100,100,0.58,.,.
hour,USCAN,cachejct,2136,06MAR2019:10:00:00,0.6,0.6,-0.3,0,0,37.8,30,40.9,37.6,40.2,0.7,1.2,1.2,2.3,3.9,146,1.609344,0.67056,99,138.6,0.49896,0,0.61,99,100,0.61,.,.
hour,USCAN,cachejct,2136,06MAR2019:11:00:00,1.5,1.5,0.6,0.8,0,37.7,30,40.9,37.5,40.1,0.9,1.3,1.2,2.4,3.9,17,2.145792,0.89408,95,240.2,0.86472,0.6,0.64,95,99,0.65,.,.
hour,USCAN,cachejct,2136,06MAR2019:12:00:00,1.8,1.8,1.3,1.5,0,38,29.7,41,37.2,40.1,1.2,1.3,1.2,2.3,3.9,38,3.263392,1.56464,97,183.5,0.6606,1,0.66,95,97,0.68,.,.
hour,USCAN,cachejct,2136,06MAR2019:13:00:00,2.9,2.9,1.8,1.9,0,38,29.9,41,37.5,40.1,1.5,1.5,1.2,2.4,3.9,334,1.966976,0.759968,92,100.5,0.3618,1,0.66,92,97,0.7,.,.
hour,USCAN,cachejct,2136,06MAR2019:14:00:00,1.9,4,1.9,3.4,0,38.4,29.8,40.9,37.5,40.1,1.6,1.6,1.3,2.4,3.9,119,4.738624,1.609344,95,84.6,0.30456,1.8,0.69,87,95,0.78,.,.
hour,USCAN,cachejct,2136,06MAR2019:15:00:00,3.8,3.8,1.9,2.3,0.254,38.4,30.3,40.9,37.5,40.1,1.8,1.7,1.3,2.4,3.9,314,3.531616,1.698752,89,108.3,0.38988,1.7,0.69,89,97,0.72,.,.
hour,USCAN,cachejct,2136,06MAR2019:16:00:00,4.1,4.9,3.8,4.2,2.286,38.4,30.2,41,37.6,40.1,1.9,1.9,1.3,2.3,3.9,243,9.16432,4.91744,94,29.91,0.107676,2.8,0.75,87,96,0.82,.,.
hour,USCAN,cachejct,2136,06MAR2019:17:00:00,3.4,4.1,3.4,3.7,2.794,42.2,30,41,37.2,40.1,2,1.9,1.3,2.3,3.9,227,8.04672,5.81152,88,19.49,0.070164,2.5,0.73,88,94,0.8,.,.
hour,USCAN,cachejct,2136,06MAR2019:18:00:00,2.3,3.6,2.3,3.2,1.778,42.2,31.5,40.8,37.5,40.1,2,2,1.3,2.4,3.9,186,6.7056,2.861056,100,14.33,0.051588,2.1,0.71,88,100,0.77,.,.
hour,USCAN,cachejct,2136,06MAR2019:19:00:00,1.8,2.3,1.8,2,1.27,42.2,33,42.8,37.7,40.2,2,2,1.4,2.4,3.9,153,1.966976,0.804672,100,2.48,0.008928,1.9,0.7,99,100,0.7,.,.
hour,USCAN,cachejct,2136,06MAR2019:20:00:00,1.1,1.8,1.1,1.5,0.508,42.2,32.9,43.7,37.6,40.1,2,2.1,1.4,2.4,3.9,157,1.430528,0.536448,100,0.11,0.000396,1.5,0.68,100,100,0.68,.,.
hour,USCAN,cachejct,2136,06MAR2019:21:00:00,0.6,1.2,0.6,0.9,0,41.8,33.2,43.7,38,40.2,1.9,2.1,1.5,2.4,3.9,14,2.90576,0.89408,100,0.2,0.00072,0.9,0.65,100,100,0.65,.,.
hour,USCAN,cachejct,2136,06MAR2019:22:00:00,1.9,1.9,0.6,1,0.254,41.4,32.8,43.7,38.3,40.2,1.9,2.1,1.5,2.4,3.9,339,3.710432,1.430528,96,0.2,0.00072,0.9,0.65,96,100,0.66,.,.
hour,USCAN,cachejct,2136,06MAR2019:23:00:00,0.4,1.9,0.4,1.6,0,41.2,33,43.7,38.3,40.3,1.8,2.1,1.5,2.4,3.9,332,2.369312,1.34112,100,0.18,0.000648,1.2,0.67,96,100,0.69,.,.
hour,USCAN,cachejct,2136,07MAR2019:00:00:00,0.3,0.6,0.2,0.4,0.254,41.2,32.3,43.8,38.7,40.3,1.7,2,1.6,2.4,3.9,169,1.475232,0.581152,100,0.24,0.000864,0.4,0.63,100,100,0.63,.,.
hour,USCAN,cachejct,2136,07MAR2019:01:00:00,1.6,1.6,0.3,0.7,1.27,41,32.6,43.7,38.6,40.3,1.6,2,1.6,2.4,3.9,207,6.660896,2.056384,100,0.29,0.001044,0.7,0.64,100,100,0.64,.,.
hour,USCAN,cachejct,2136,07MAR2019:02:00:00,0.7,2.7,0.7,2.1,5.334,43,34.1,43.7,38.6,40.3,1.6,2,1.6,2.4,3.9,219,7.957312,4.068064,98,0.13,0.000468,1.3,0.67,91,100,0.71,.,.
hour,USCAN,cachejct,2136,07MAR2019:03:00:00,0.4,0.7,0.3,0.5,1.27,42.7,34,46.1,38.9,40.3,1.6,2,1.6,2.4,3.9,311,2.592832,0.849376,98,0.16,0.000576,0.3,0.62,98,99,0.63,.,.
hour,USCAN,cachejct,2136,07MAR2019:04:00:00,-0.1,0.4,-0.1,0.4,0.508,42.2,33.8,45.7,39.2,40.7,1.6,2,1.6,2.2,3.9,74,1.922272,0.581152,100,0.2,0.00072,0.3,0.62,98,100,0.63,.,.
hour,USCAN,cachejct,2136,07MAR2019:05:00:00,-0.3,0,-0.3,-0.1,0.508,42,33.4,45.2,39.2,40.7,1.6,1.9,1.6,2.3,3.9,354,1.385824,0.625856,100,0.23,0.000828,-0.1,0.6,100,100,0.6,.,.
hour,USCAN,cachejct,2136,07MAR2019:06:00:00,-0.1,-0.1,-0.3,-0.3,2.286,42.7,33.6,45.1,39.4,40.7,1.5,1.9,1.6,2.3,3.9,175,4.02336,1.877568,100,0.27,0.000972,-0.3,0.6,100,100,0.6,.,.
hour,USCAN,cachejct,2136,07MAR2019:07:00:00,0.2,0.2,-0.1,0.1,1.778,42.7,33.6,45.1,39.2,40.7,1.5,1.9,1.6,2.3,3.9,218,2.2352,1.207008,99,0.37,0.001332,0.1,0.62,99,100,0.62,.,.
hour,USCAN,cachejct,2136,07MAR2019:08:00:00,-0.6,0.2,-0.6,-0.1,1.524,42.7,34.1,45.5,39.2,40.7,1.4,1.9,1.6,2.3,3.9,182,2.861056,1.430528,100,8.81,0.031716,-0.2,0.6,99,100,0.61,.,.
hour,USCAN,cachejct,2136,07MAR2019:09:00:00,0.4,0.4,-0.6,-0.2,0.508,42.6,34.1,45.5,39.5,40.7,1.4,1.9,1.6,2.4,3.9,217,2.01168,0.491744,100,75.01,0.270036,-0.2,0.6,100,100,0.6,.,.
hour,USCAN,cachejct,2136,07MAR2019:10:00:00,1.4,1.4,0.4,0.9,0,42.2,33.8,45.1,39.5,40.7,1.5,1.9,1.6,2.4,3.9,318,1.609344,0.804672,96,158.3,0.56988,0.6,0.64,96,100,0.65,.,.
hour,USCAN,cachejct,2136,07MAR2019:11:00:00,2.8,2.8,1.4,2,0,42.2,33.4,45.6,39.6,40.7,1.7,1.9,1.6,2.4,3.9,285,3.039872,0.89408,92,258.6,0.93096,1.1,0.66,92,96,0.7,.,.
hour,USCAN,cachejct,2136,07MAR2019:12:00:00,3.9,4.9,2.8,4,0,41.8,33.1,44.7,39.4,40.7,2.2,2.1,1.6,2.3,3.9,87,3.755136,1.966976,89,620.9,2.23524,2.5,0.73,87,92,0.81,.,.
hour,USCAN,cachejct,2136,07MAR2019:13:00:00,5.6,5.7,3.9,4.6,0,41.8,33.2,44.4,39.4,40.7,2.8,2.3,1.6,2.3,3.9,128,4.202176,2.503424,84,463.4,1.66824,2.9,0.76,84,90,0.85,.,.
hour,USCAN,cachejct,2136,07MAR2019:14:00:00,6,6.4,5.6,6,0,41.5,33.1,44.5,39.4,40.7,3.4,2.6,1.7,2.4,3.9,155,5.543296,2.726944,76,346.6,1.24776,3,0.76,76,84,0.93,.,.
hour,USCAN,cachejct,2136,07MAR2019:15:00:00,6.7,7.5,6,6.7,0,41.5,32.8,44.2,39.5,40.7,3.9,3,1.7,2.3,3.9,150,4.112768,2.01168,69,297.8,1.07208,1.9,0.7,67,76,0.98,.,.
hour,USCAN,cachejct,2136,07MAR2019:16:00:00,7.5,7.9,6.3,6.9,0,41.5,32.6,44.2,39.4,40.7,4.1,3.2,1.8,2.4,3.9,218,4.4704,2.2352,70,318.2,1.14552,1.7,0.69,66,73,1,.,.
hour,USCAN,cachejct,2136,07MAR2019:17:00:00,4.9,7.5,4.9,7,0.254,41,32.9,44.2,39.2,40.7,4.3,3.4,1.9,2.3,3.9,213,6.079744,3.039872,84,73.8,0.26568,1.6,0.69,66,84,1,.,.
hour,USCAN,cachejct,2136,07MAR2019:18:00:00,3.4,4.9,3,3.7,1.016,41,32.5,44.3,39.2,40.7,4.3,3.6,1.9,2.3,3.9,344,5.81152,1.922272,89,38.71,0.139356,1.8,0.69,84,89,0.8,.,.
hour,USCAN,cachejct,2136,07MAR2019:19:00:00,2.3,3.4,2.1,2.6,0,41.3,32.3,43.7,39.3,40.7,4.1,3.6,2,2.4,3.9,67,2.503424,0.983488,94,8.83,0.031788,1.5,0.68,89,96,0.74,.,.
hour,USCAN,cachejct,2136,07MAR2019:20:00:00,2.1,2.3,1.6,2,0,41,32.4,44,39.1,40.7,3.8,3.6,2.1,2.3,3.9,274,1.832864,0.983488,91,0.13,0.000468,1.1,0.66,91,95,0.7,.,.
hour,USCAN,cachejct,2136,07MAR2019:21:00:00,0.6,2.1,0.6,1.1,0,41.1,32.6,43.7,39.1,40.7,3.5,3.6,2.2,2.4,3.9,318,1.922272,1.072896,100,0.16,0.000576,0.6,0.64,91,100,0.66,.,.
hour,USCAN,cachejct,2136,07MAR2019:22:00:00,-0.7,0.6,-0.7,0.2,0,40.8,32.4,43.7,39,40.7,3.3,3.5,2.2,2.3,3.9,310,2.995168,1.207008,100,0.25,0.0009,0.1,0.61,98,100,0.62,.,.
hour,USCAN,cachejct,2136,07MAR2019:23:00:00,0.2,0.2,-0.7,-0.3,0,40.8,31.9,43.7,39,40.7,3,3.4,2.3,2.4,3.9,294,2.056384,1.162304,98,0.3,0.00108,-0.4,0.59,98,100,0.6,.,.
hour,USCAN,cachejct,2136,08MAR2019:00:00:00,-0.5,0.2,-0.5,0,0,40.9,32.3,43.7,38.9,40.7,2.9,3.3,2.3,2.4,3.9,301,2.995168,1.34112,100,0.26,0.000936,-0.2,0.6,97,100,0.61,.,.
hour,USCAN,cachejct,2136,08MAR2019:01:00:00,-1,-0.4,-1,-0.6,0,40.5,32.1,43.6,39,40.7,2.7,3.2,2.3,2.4,3.9,356,2.01168,0.849376,100,0.24,0.000864,-0.6,0.58,99,100,0.59,.,.
hour,USCAN,cachejct,2136,08MAR2019:02:00:00,.,.,.,.,.,40.5,32.2,43.6,39,40.7,2.6,3.1,2.4,2.4,3.9,.,.,.,.,.,.,-0.9,0.57,.,.,0.57,.,.
hour,USCAN,cachejct,2136,08MAR2019:03:00:00,-1.2,-0.9,-1.2,-1,0,40.2,32,43.7,38.6,40.7,2.4,3,2.3,2.3,3.9,136,2.279904,0.89408,100,0.3,0.00108,-1,0.57,100,100,0.57,.,.
hour,USCAN,cachejct,2136,08MAR2019:04:00:00,-0.7,-0.7,-1.2,-1,0,40.4,32.1,43.3,38.8,40.7,2.3,2.9,2.4,2.4,3.9,229,2.279904,0.89408,100,0.33,0.001188,-1,0.57,100,100,0.57,.,.
hour,USCAN,cachejct,2136,08MAR2019:05:00:00,-0.3,-0.1,-0.7,-0.3,0.254,40,31.7,43.3,38.4,40.7,2.3,2.9,2.4,2.3,3.9,154,6.03504,1.56464,100,0.31,0.001116,-0.4,0.6,99,100,0.6,.,.
hour,USCAN,cachejct,2136,08MAR2019:06:00:00,-1.5,-0.3,-1.5,-0.9,0.254,40.1,31.8,43.2,38.4,40.7,2.2,2.8,2.4,2.4,3.9,174,6.437376,3.397504,100,0.37,0.001332,-0.9,0.57,100,100,0.57,.,.
hour,USCAN,cachejct,2136,08MAR2019:07:00:00,-1.5,-1.3,-1.5,-1.4,1.27,40.3,31.6,42.7,38.6,40.7,2.1,2.7,2.3,2.5,3.9,263,2.369312,0.983488,100,0.67,0.002412,-1.4,0.55,100,100,0.55,.,.
hour,USCAN,cachejct,2136,08MAR2019:08:00:00,-1.6,-1.5,-1.6,-1.6,0.508,41.5,31.6,43.1,38.6,40.7,2,2.6,2.3,2.5,3.8,215,1.251712,0.402336,100,5.71,0.020556,-1.6,0.54,100,100,0.54,.,.
hour,USCAN,cachejct,2136,08MAR2019:09:00:00,-1.5,-1.5,-1.7,-1.6,1.016,42.3,31.8,43.1,38.5,40.7,1.9,2.6,2.3,2.5,3.9,98,2.01168,0.581152,100,20.7,0.07452,-1.6,0.54,100,100,0.54,.,.
hour,USCAN,cachejct,2136,08MAR2019:10:00:00,-1.6,-1.5,-1.6,-1.5,3.048,42.6,32.2,43.1,38.5,40.7,1.9,2.6,2.3,2.5,3.9,284,2.726944,1.56464,100,92.6,0.33336,-1.5,0.55,100,100,0.55,.,.
hour,USCAN,cachejct,2136,08MAR2019:11:00:00,-0.5,-0.5,-1.6,-1.3,1.27,42.7,32.4,42.9,38.5,40.7,1.8,2.5,2.3,2.5,3.9,356,4.380992,2.414016,99,115.3,0.41508,-1.4,0.55,99,100,0.55,.,.
hour,USCAN,cachejct,2136,08MAR2019:12:00:00,0.1,0.1,-0.8,-0.6,0,43.1,33.2,42.7,38.4,40.7,1.8,2.5,2.3,2.4,3.9,58,3.531616,1.162304,98,163.6,0.58896,-0.6,0.58,98,100,0.59,.,.
hour,USCAN,cachejct,2136,08MAR2019:13:00:00,1.2,1.2,0.1,0.5,0,42.7,34.1,44.2,38.8,40.7,1.8,2.5,2.3,2.6,3.9,63,2.726944,1.251712,95,336.5,1.2114,-0.1,0.61,94,98,0.63,.,.
hour,USCAN,cachejct,2136,08MAR2019:14:00:00,1.4,1.4,0.8,1.1,0,42.6,33.7,45,38.8,40.7,2.2,2.5,2.2,2.6,3.9,41,3.3528,1.251712,92,168.7,0.60732,0.4,0.63,92,96,0.66,.,.
hour,USCAN,cachejct,2136,08MAR2019:15:00:00,1.4,2.2,1.2,1.7,0,42,33.6,44.5,38.8,40.7,2.5,2.6,2.3,2.5,3.9,253,7.554976,3.710432,85,158.8,0.57168,0,0.61,85,92,0.69,.,.
hour,USCAN,cachejct,2136,08MAR2019:16:00:00,-0.1,1.4,-0.1,0.9,0,41.8,33.5,44.1,39.1,40.7,2.6,2.8,2.3,2.6,3.9,337,8.851392,5.36448,89,89.5,0.3222,-1.1,0.56,83,90,0.65,.,.
hour,USCAN,cachejct,2136,08MAR2019:17:00:00,-0.4,-0.1,-0.9,-0.4,0,41.9,33.1,44.2,39.1,40.7,2.6,2.8,2.3,2.5,3.9,7,8.538464,5.275072,88,29.07,0.104652,-1.9,0.53,83,96,0.59,.,.
hour,USCAN,cachejct,2136,08MAR2019:18:00:00,-1.7,-0.4,-1.7,-1.3,0,41.5,33,44.2,38.9,40.7,2.5,2.9,2.3,2.5,3.9,40,8.71728,2.45872,100,17.47,0.062892,-2,0.53,88,100,0.56,.,.